This demonstration page uses our WeatherBlox Daily Observations layout. Learn more.

36.17497, -115.13722

Hourly Observations for July 7, 2015

Temp ( °F °C ) Dew Point ( °F °C ) Humidity (%) Winds ( mph kmh ) Pressure ( in mb ) Visibility ( mi km ) Precip ( " mm )
12:53 am 00:53 Clear 79 26 66 19 65 65 E 3 6 29.83 1010 10 16.09344 0 0
1:53 am 01:53 Clear 81 27 63 17 54 54 N 7 11 29.83 1010 10 16.09344 0 0
2:53 am 02:53 Clear 81 27 61 16 51 51 NNE 5 7 29.8 1009 10 16.09344 0 0
3:53 am 03:53 Clear 79 26 63 17 58 58 S 7 11 29.8 1009 10 16.09344 0 0
4:53 am 04:53 Mostly Clear 79 26 61 16 54 54 SW 7 11 29.83 1010 10 16.09344 0 0
5:53 am 05:53 Mostly Cloudy 79 26 61 16 54 54 Calm 29.83 1010 10 16.09344 0 0
6:53 am 06:53 Partly Cloudy with Light Rain 77 25 61 16 57 57 N 9 15 29.85 1011 10 16.09344 0.001 0.001
7:53 am 07:53 Sunny 77 25 63 17 61 61 N 5 7 29.85 1011 10 16.09344 0.001 0.001
8:53 am 08:53 Sunny 82 28 61 16 48 48 Calm 29.85 1011 10 16.09344 0 0
9:53 am 09:53 Sunny 88 31 57 14 35 35 E 5 7 29.83 1010 10 16.09344 0 0
10:53 am 10:53 Sunny 90 32 57 14 33 33 E 3 6 29.83 1010 10 16.09344 0 0
11:53 am 11:53 Sunny 91 33 54 12 28 28 N 7 11 29.77 1008 10 16.09344 0 0
12:53 pm 12:53 Sunny 93 34 52 11 24 24 SE 8 13 29.74 1007 10 16.09344 0 0
1:53 pm 13:53 Sunny 97 36 52 11 22 22 S 7 11 29.65 1004 10 16.09344 0 0
2:53 pm 14:53 Sunny 97 36 52 11 22 22 WSW 6 9 29.62 1003 10 16.09344 0 0
3:53 pm 15:53 Sunny 97 36 52 11 22 22 S 14 22 29.59 1002 10 16.09344 0 0
4:53 pm 16:53 Sunny 97 36 48 9 19 19 N 6 9 29.56 1001 10 16.09344 0 0
5:53 pm 17:53 Sunny 99 37 48 9 18 18 SW 7 11 29.56 1001 10 16.09344 0 0
6:33 pm 18:33 Mostly Sunny 97 36 50 10 20 20 S 12 19 29.53 1000 10 16.09344 0 0
6:53 pm 18:53 Sunny 97 36 52 11 22 22 SSW 10 17 29.56 1001 10 16.09344 0 0
7:53 pm 19:53 Sunny 95 35 50 10 22 22 SSW 7 11 29.53 1000 10 16.09344 0 0
8:53 pm 20:53 Clear 93 34 48 9 21 21 WSW 5 7 29.59 1002 10 16.09344 0 0
9:53 pm 21:53 Clear 93 34 50 10 23 23 NW 5 7 29.59 1002 10 16.09344 0 0
10:53 pm 22:53 Mostly Clear 91 33 50 10 24 24 N 9 15 29.59 1002 10 16.09344 0.001 0.001
11:53 pm 23:53 Clear 90 32 48 9 24 24 N 8 13 29.59 1002 10 16.09344 0 0

Powered by AerisWeather